K9APR Weather Reports


time (UTC)temp
C
wind
direction
speed
KPH
gust
KPH
rain 1hr
cm
rain 24hr
cm
rain mn
cm
humidity
%
barometer
mb
20260502150204 7 300 1.6 3.2 0.00 0.00 0.00 55 1020.3
20260502130502 3 312 0.0 1.6 0.00 0.05 0.00 74 1020.0
20260502123803 2 306 1.6 3.2 0.00 0.08 0.00 75 1019.7
20260502122902 2 304 0.0 1.6 0.00 0.08 0.00 78 1019.6
20260502122002 2 256 0.0 1.6 0.00 0.10 0.00 80 1019.4
20260502121103 1 288 1.6 4.8 0.00 0.13 0.00 82 1019.4
20260502120203 1 356 0.0 0.0 0.00 0.15 0.00 84 1019.4
20260502115305 1 80 0.0 1.6 0.00 0.15 0.00 84 1019.3
20260502114403 1 81 0.0 0.0 0.00 0.15 0.00 85 1019.2
20260502113502 0 81 0.0 0.0 0.00 0.18 0.00 84 1019.2
20260502112603 1 81 0.0 0.0 0.00 0.20 0.00 84 1019.1
20260502111703 1 81 0.0 0.0 0.00 0.20 0.00 84 1019.0
20260502110803 1 81 0.0 0.0 0.00 0.20 0.00 84 1018.9
20260502105901 1 81 0.0 0.0 0.00 0.20 0.00 83 1018.9
20260502105035 1 81 0.0 0.0 0.00 0.20 0.00 83 1019.0
20260502105003 1 81 0.0 0.0 0.00 0.20 0.00 83 1019.0
20260502104102 1 81 0.0 0.0 0.00 0.20 0.00 83 1018.9
20260502103203 1 81 0.0 0.0 0.00 0.20 0.00 82 1018.9
20260502102305 1 81 0.0 0.0 0.00 0.20 0.00 82 1018.8
20260502101403 1 81 0.0 0.0 0.00 0.20 0.00 82 1018.8
20260502100503 1 81 0.0 0.0 0.00 0.20 0.00 81 1018.8
20260502091105 2 304 0.0 0.0 0.00 0.20 0.00 79 1018.7
20260502090202 2 303 0.0 0.0 0.00 0.20 0.00 79 1018.6
20260502071403 2 303 0.0 0.0 0.00 0.20 0.00 85 1018.6
20260502070502 2 303 0.0 0.0 0.00 0.20 0.00 84 1018.6
20260502065602 2 303 0.0 0.0 0.00 0.20 0.00 83 1018.6
20260502064703 2 303 0.0 0.0 0.00 0.20 0.00 81 1018.7
20260502063802 2 303 0.0 0.0 0.00 0.20 0.00 80 1018.7
20260502062902 2 303 0.0 0.0 0.00 0.20 0.00 81 1018.7
20260502062003 2 303 0.0 0.0 0.00 0.20 0.00 81 1018.8
20260502061104 2 303 0.0 0.0 0.00 0.20 0.00 82 1018.8
20260502060203 2 303 0.0 0.0 0.00 0.20 0.00 82 1018.8
20260502055305 2 303 0.0 0.0 0.00 0.20 0.00 82 1018.9
20260502054403 2 303 0.0 0.0 0.00 0.20 0.00 82 1019.0
20260502053502 2 303 0.0 0.0 0.00 0.20 0.00 81 1019.0
20260502052607 2 303 0.0 0.0 0.00 0.20 0.00 80 1019.1
20260502051702 2 303 0.0 0.0 0.00 0.20 0.00 81 1019.1
20260502050801 2 303 0.0 0.0 0.00 0.20 0.00 81 1019.0
20260502045902 2 303 0.0 0.0 0.00 0.20 0.00 81 1018.9
20260502045002 2 303 0.0 0.0 0.00 0.20 0.00 81 1018.9
20260502044103 3 303 0.0 0.0 0.00 0.20 0.00 81 1018.9
20260502043201 3 303 0.0 0.0 0.00 0.20 0.00 82 1019.0
20260502042306 3 303 0.0 0.0 0.00 0.20 0.00 83 1019.0
20260502041402 3 303 0.0 0.0 0.00 0.20 0.00 84 1018.9
20260502040502 3 303 0.0 0.0 0.00 0.20 0.00 84 1018.9
20260502035602 3 303 0.0 0.0 0.00 0.20 0.20 84 1018.8
20260502034703 3 303 0.0 0.0 0.00 0.20 0.20 84 1018.9
20260502033801 3 303 0.0 0.0 0.00 0.20 0.20 84 1018.9
20260502032905 3 303 0.0 0.0 0.00 0.20 0.20 83 1018.9
20260502032002 3 303 0.0 0.0 0.00 0.20 0.20 83 1019.0
20260502031103 3 303 0.0 0.0 0.00 0.20 0.20 83 1018.8
20260502030202 3 303 0.0 0.0 0.00 0.20 0.20 83 1018.9
20260502025948 3 303 0.0 0.0 0.00 0.20 0.20 83 1019.0
20260502025306 3 303 0.0 0.0 0.00 0.20 0.20 83 1019.0
20260502024403 4 303 0.0 0.0 0.00 0.20 0.20 82 1019.0
20260502023503 4 303 0.0 0.0 0.00 0.20 0.20 82 1018.9
20260502022603 4 303 0.0 0.0 0.00 0.20 0.20 82 1018.8
20260502021702 5 303 0.0 0.0 0.00 0.20 0.20 80 1018.6
20260502020801 5 303 0.0 0.0 0.00 0.20 0.20 80 1018.5
20260502015903 5 303 0.0 0.0 0.00 0.20 0.20 79 1018.2
20260502015003 6 303 0.0 0.0 0.00 0.20 0.20 77 1018.0
20260502014103 6 303 0.0 0.0 0.00 0.20 0.20 77 1017.7
20260502013202 6 303 0.0 1.6 0.00 0.20 0.20 77 1017.7
20260502011402 6 308 0.0 1.6 0.00 0.20 0.20 77 1017.5
20260502010503 6 308 0.0 0.0 0.00 0.20 0.20 76 1017.3
20260502005603 7 308 0.0 3.2 0.00 0.20 0.20 74 1017.2
20260502004702 7 308 0.0 1.6 0.00 0.20 0.20 74 1017.0
20260502003802 7 313 1.6 3.2 0.00 0.20 0.20 72 1016.9
20260502002902 8 321 1.6 3.2 0.00 0.20 0.20 70 1016.8
20260502002003 8 319 1.6 3.2 0.00 0.20 0.20 68 1016.7
20260502001101 9 321 0.0 1.6 0.00 0.20 0.20 69 1016.8
20260502000203 8 306 1.6 4.8 0.00 0.20 0.20 69 1016.9
20260501235305 8 311 1.6 4.8 0.00 0.20 0.20 71 1017.0
20260501234403 8 310 3.2 4.8 0.00 0.20 0.20 69 1017.0
20260501233502 8 314 3.2 4.8 0.00 0.20 0.20 65 1017.0
20260501232603 9 307 8.0 12.9 0.00 0.20 0.20 61 1016.7
20260501231702 9 301 8.0 11.3 0.00 0.20 0.20 60 1016.5
20260501230802 10 308 4.8 9.7 0.00 0.20 0.20 61 1016.5
20260501225902 10 310 4.8 9.7 0.00 0.20 0.20 62 1016.5
20260501225001 10 304 11.3 12.9 0.00 0.20 0.20 60 1016.4
20260501224101 10 301 11.3 12.9 0.00 0.20 0.20 60 1016.4
20260501223202 10 309 9.7 14.5 0.00 0.20 0.20 60 1016.5
20260501222305 10 305 8.0 9.7 0.00 0.20 0.20 61 1016.4
20260501221403 10 312 8.0 9.7 0.00 0.20 0.20 61 1016.4
20260501220502 10 317 4.8 8.0 0.00 0.20 0.20 60 1016.4
20260501215601 10 305 4.8 8.0 0.00 0.20 0.20 61 1016.5
20260501214703 10 300 8.0 11.3 0.00 0.20 0.20 60 1016.5
20260501213802 11 315 3.2 4.8 0.00 0.20 0.20 59 1016.6
20260501212902 10 298 8.0 11.3 0.00 0.20 0.20 60 1016.6
20260501212001 9 305 8.0 9.7 0.00 0.20 0.20 64 1016.5
20260501211103 10 304 3.2 4.8 0.00 0.20 0.20 63 1016.4
20260501210201 10 307 8.0 11.3 0.00 0.20 0.20 60 1016.4
20260501205305 10 308 8.0 11.3 0.00 0.20 0.20 64 1016.5
20260501204403 10 303 4.8 8.0 0.00 0.20 0.20 64 1016.5
20260501203502 9 314 4.8 4.8 0.00 0.20 0.20 62 1016.6
20260501202601 10 312 4.8 9.7 0.00 0.20 0.20 63 1016.7
20260501201703 10 307 11.3 12.9 0.00 0.20 0.20 61 1016.6
20260501200802 10 300 3.2 8.0 0.00 0.20 0.20 59 1016.7
20260501195901 10 284 3.2 16.1 0.00 0.20 0.20 65 1016.7
20260501195002 10 304 4.8 9.7 0.00 0.20 0.20 64 1016.6
20260501194102 10 333 1.6 3.2 0.00 0.20 0.20 65 1016.6
20260501193203 9 324 3.2 3.2 0.00 0.20 0.20 65 1016.6
20260501192306 10 308 4.8 9.7 0.00 0.20 0.20 62 1016.5
20260501191403 10 304 9.7 12.9 0.00 0.20 0.20 65 1016.5
20260501190503 10 303 9.7 11.3 0.00 0.20 0.20 67 1016.5
20260501185603 10 309 8.0 9.7 0.00 0.20 0.20 70 1016.5
20260501184702 9 303 4.8 9.7 0.00 0.20 0.20 67 1016.4
20260501183803 9 309 8.0 12.9 0.00 0.20 0.20 69 1016.3
20260501182903 8 300 8.0 9.7 0.00 0.20 0.20 71 1016.3
20260501182001 8 306 9.7 14.5 0.00 0.20 0.20 71 1016.2
20260501181103 8 306 4.8 9.7 0.00 0.20 0.20 74 1016.2
20260501180203 8 334 1.6 4.8 0.00 0.20 0.20 75 1016.1
20260501174405 8 309 4.8 8.0 0.00 0.20 0.20 78 1016.0
20260501174401 8 309 4.8 8.0 0.00 0.20 0.20 78 1016.0
20260501173502 8 312 8.0 11.3 0.00 0.20 0.20 76 1015.9
20260501172601 8 22 1.6 3.2 0.00 0.20 0.20 78 1015.7
20260501171702 8 312 9.7 12.9 0.00 0.20 0.20 80 1015.7
20260501170802 7 313 8.0 8.0 0.00 0.20 0.20 79 1015.7
20260501165902 7 316 4.8 4.8 0.00 0.20 0.20 81 1015.6
20260501165003 6 308 8.0 11.3 0.00 0.20 0.20 81 1015.7
20260501164102 6 314 8.0 11.3 0.00 0.20 0.20 82 1015.6
20260501163202 7 303 12.9 19.3 0.00 0.20 0.20 82 1015.5
20260501162305 7 306 12.9 19.3 0.00 0.20 0.20 81 1015.2
20260501161402 7 306 11.3 14.5 0.00 0.20 0.20 82 1015.0
20260501160501 7 306 9.7 11.3 0.00 0.20 0.20 82 1015.0
20260501155602 7 305 3.2 4.8 0.00 0.20 0.20 83 1014.8
20260501153803 7 304 9.7 11.3 0.00 0.20 0.20 82 1014.5
20260501152901 7 308 12.9 14.5 0.00 0.20 0.20 83 1014.4
20260501152003 7 307 11.3 19.3 0.00 0.20 0.20 83 1014.3
20260501151103 7 300 16.1 24.1 0.00 0.20 0.20 82 1014.3